Time,TemperatureF,DewpointF,PressureIn,WindDirection,WindDirectionDegrees,WindSpeedMPH,WindSpeedGustMPH,Humidity,HourlyPrecipIn,Conditions,Clouds,dailyrainin,SoftwareType,DateUTC
2013-01-29 00:02:00,60.0,59.0,30.16,East,79,0.0,1.0,95,0.00,,,0.00,,2013-01-29 06:02:00,
2013-01-29 00:11:00,60.0,59.0,30.16,East,79,0.0,1.0,95,0.00,,,0.00,,2013-01-29 06:11:00,
2013-01-29 00:21:00,60.0,59.0,30.16,ENE,60,0.0,1.0,95,0.00,,,0.00,,2013-01-29 06:21:00,
2013-01-29 00:32:00,60.0,59.0,30.15,East,83,0.0,2.0,95,0.00,,,0.00,,2013-01-29 06:32:00,
2013-01-29 00:42:00,60.0,59.0,30.15,East,83,0.0,2.0,95,0.00,,,0.00,,2013-01-29 06:42:00,
2013-01-29 00:52:00,60.0,59.0,30.15,East,94,0.0,1.0,95,0.00,,,0.00,,2013-01-29 06:52:00,
2013-01-29 01:02:00,60.0,59.0,30.15,ESE,122,0.0,1.0,95,0.00,,,0.00,,2013-01-29 07:02:00,
2013-01-29 01:11:00,60.0,59.0,30.15,ESE,122,0.0,1.0,95,0.00,,,0.00,,2013-01-29 07:11:00,
2013-01-29 01:21:00,60.0,59.0,30.14,ESE,122,0.0,1.0,95,0.00,,,0.00,,2013-01-29 07:21:00,
2013-01-29 01:32:00,60.0,59.0,30.14,SE,130,0.0,1.0,96,0.00,,,0.00,,2013-01-29 07:32:00,
2013-01-29 01:42:00,60.0,59.0,30.14,SE,130,0.0,1.0,96,0.00,,,0.00,,2013-01-29 07:42:00,
2013-01-29 01:52:00,59.0,58.0,30.14,SE,129,0.0,1.0,96,0.00,,,0.00,,2013-01-29 07:52:00,
2013-01-29 02:02:00,59.0,58.0,30.14,East,80,0.0,1.0,96,0.00,,,0.00,,2013-01-29 08:02:00,
2013-01-29 02:11:00,59.0,58.0,30.14,East,80,0.0,1.0,96,0.00,,,0.00,,2013-01-29 08:11:00,
2013-01-29 02:21:00,60.0,59.0,30.14,East,84,0.0,1.0,96,0.00,,,0.00,,2013-01-29 08:21:00,
2013-01-29 02:32:00,60.0,59.0,30.14,East,81,0.0,1.0,96,0.00,,,0.00,,2013-01-29 08:32:00,
2013-01-29 02:42:00,60.0,59.0,30.14,East,81,0.0,1.0,96,0.00,,,0.00,,2013-01-29 08:42:00,
2013-01-29 02:52:00,59.0,58.0,30.14,ENE,75,0.0,1.0,96,0.00,,,0.00,,2013-01-29 08:52:00,
2013-01-29 03:02:00,60.0,59.0,30.14,ENE,75,0.0,1.0,96,0.00,,,0.00,,2013-01-29 09:02:00,
2013-01-29 03:11:00,60.0,59.0,30.14,ENE,75,0.0,1.0,96,0.00,,,0.00,,2013-01-29 09:11:00,
2013-01-29 03:21:00,60.0,59.0,30.13,ENE,74,0.0,1.0,96,0.00,,,0.00,,2013-01-29 09:21:00,
2013-01-29 03:32:00,60.0,59.0,30.13,ENE,76,0.0,2.0,96,0.00,,,0.00,,2013-01-29 09:32:00,
2013-01-29 03:42:00,60.0,59.0,30.13,ENE,76,0.0,2.0,96,0.00,,,0.00,,2013-01-29 09:42:00,
2013-01-29 03:52:00,60.0,59.0,30.13,ENE,64,1.0,2.0,95,0.00,,,0.00,,2013-01-29 09:52:00,
2013-01-29 04:01:00,60.0,59.0,30.13,ENE,71,0.0,3.0,96,0.00,,,0.00,,2013-01-29 10:01:00,
2013-01-29 04:11:00,60.0,59.0,30.13,ENE,71,0.0,3.0,96,0.00,,,0.00,,2013-01-29 10:11:00,
2013-01-29 04:21:00,60.0,59.0,30.12,ENE,70,1.0,3.0,96,0.00,,,0.00,,2013-01-29 10:21:00,
2013-01-29 04:32:00,60.0,59.0,30.13,ESE,104,1.0,3.0,95,0.00,,,0.00,,2013-01-29 10:32:00,
2013-01-29 04:42:00,60.0,59.0,30.13,ESE,104,1.0,3.0,95,0.00,,,0.00,,2013-01-29 10:42:00,
2013-01-29 04:52:00,60.0,59.0,30.13,ENE,70,1.0,3.0,95,0.00,,,0.00,,2013-01-29 10:52:00,
2013-01-29 05:02:00,60.0,59.0,30.13,East,86,0.0,2.0,95,0.00,,,0.00,,2013-01-29 11:02:00,
2013-01-29 05:11:00,60.0,59.0,30.13,East,86,0.0,2.0,95,0.00,,,0.00,,2013-01-29 11:11:00,
2013-01-29 05:22:00,60.0,59.0,30.13,East,91,1.0,3.0,95,0.00,,,0.00,,2013-01-29 11:22:00,
2013-01-29 05:32:00,61.0,59.0,30.13,East,86,0.0,2.0,94,0.00,,,0.00,,2013-01-29 11:32:00,
2013-01-29 05:42:00,61.0,59.0,30.13,East,86,0.0,2.0,94,0.00,,,0.00,,2013-01-29 11:42:00,
2013-01-29 05:53:00,61.0,59.0,30.13,ESE,118,0.0,1.0,94,0.00,,,0.00,,2013-01-29 11:53:00,
2013-01-29 06:02:00,60.0,58.0,30.13,ESE,115,0.0,4.0,94,0.00,,,0.00,,2013-01-29 12:02:00,
2013-01-29 06:12:00,60.0,58.0,30.13,ESE,115,0.0,4.0,94,0.00,,,0.00,,2013-01-29 12:12:00,
2013-01-29 06:22:00,60.0,58.0,30.12,ESE,120,0.0,3.0,94,0.00,,,0.00,,2013-01-29 12:22:00,
2013-01-29 06:33:00,60.0,58.0,30.13,ESE,118,0.0,1.0,94,0.00,,,0.00,,2013-01-29 12:33:00,
2013-01-29 06:43:00,60.0,58.0,30.13,ESE,118,0.0,1.0,94,0.00,,,0.00,,2013-01-29 12:43:00,
2013-01-29 06:53:00,60.0,58.0,30.12,East,94,0.0,3.0,94,0.00,,,0.00,,2013-01-29 12:53:00,
2013-01-29 07:02:00,60.0,58.0,30.12,ENE,71,1.0,5.0,94,0.00,,,0.00,,2013-01-29 13:02:00,
2013-01-29 07:12:00,60.0,58.0,30.12,ENE,71,1.0,5.0,94,0.00,,,0.00,,2013-01-29 13:12:00,
2013-01-29 07:22:00,60.0,58.0,30.11,ENE,72,0.0,3.0,94,0.00,,,0.00,,2013-01-29 13:22:00,
2013-01-29 07:32:00,60.0,58.0,30.11,ESE,120,0.0,4.0,94,0.00,,,0.00,,2013-01-29 13:32:00,
2013-01-29 07:43:00,60.0,58.0,30.11,ESE,120,0.0,4.0,94,0.00,,,0.00,,2013-01-29 13:43:00,
2013-01-29 07:53:00,60.0,58.0,30.11,SE,136,1.0,4.0,94,0.00,,,0.00,,2013-01-29 13:53:00,
2013-01-29 08:02:00,61.0,59.0,30.12,East,86,1.0,4.0,93,0.00,,,0.00,,2013-01-29 14:02:00,
2013-01-29 08:12:00,63.0,60.0,30.11,SSE,152,3.0,6.0,90,0.00,,,0.00,,2013-01-29 14:12:00,
2013-01-29 08:22:00,63.0,60.0,30.11,SSE,152,3.0,6.0,90,0.00,,,0.00,,2013-01-29 14:22:00,
2013-01-29 08:33:00,64.0,60.0,30.12,SE,139,2.0,6.0,88,0.00,,,0.00,,2013-01-29 14:33:00,
2013-01-29 08:43:00,64.0,60.0,30.12,SE,139,2.0,6.0,88,0.00,,,0.00,,2013-01-29 14:43:00,
2013-01-29 08:53:00,66.0,62.0,30.11,SE,145,2.0,5.0,86,0.00,,,0.00,,2013-01-29 14:53:00,
2013-01-29 09:02:00,67.0,62.0,30.11,SE,139,2.0,9.0,85,0.00,,,0.00,,2013-01-29 15:02:00,
2013-01-29 09:12:00,67.0,62.0,30.11,SE,139,2.0,9.0,85,0.00,,,0.00,,2013-01-29 15:12:00,
2013-01-29 09:22:00,68.0,62.0,30.11,SE,134,3.0,7.0,82,0.00,,,0.00,,2013-01-29 15:22:00,
2013-01-29 09:33:00,69.0,62.0,30.11,ESE,120,3.0,7.0,79,0.00,,,0.00,,2013-01-29 15:33:00,
2013-01-29 09:43:00,69.0,62.0,30.11,ESE,120,3.0,7.0,79,0.00,,,0.00,,2013-01-29 15:43:00,
2013-01-29 09:53:00,71.0,63.0,30.11,West,275,3.0,10.0,77,0.00,,,0.00,,2013-01-29 15:53:00,
2013-01-29 10:03:00,72.0,64.0,30.10,SE,140,5.0,9.0,75,0.00,,,0.00,,2013-01-29 16:03:00,
2013-01-29 10:12:00,72.0,64.0,30.10,SE,140,5.0,9.0,75,0.00,,,0.00,,2013-01-29 16:12:00,
2013-01-29 10:23:00,72.0,64.0,30.10,SE,129,4.0,9.0,76,0.00,,,0.00,,2013-01-29 16:23:00,
2013-01-29 10:32:00,73.0,64.0,30.10,South,190,3.0,10.0,73,0.00,,,0.00,,2013-01-29 16:32:00,
2013-01-29 10:43:00,73.0,64.0,30.10,South,190,3.0,10.0,73,0.00,,,0.00,,2013-01-29 16:43:00,
2013-01-29 10:53:00,74.0,64.0,30.09,SW,235,3.0,11.0,72,0.00,,,0.00,,2013-01-29 16:53:00,
2013-01-29 11:03:00,74.0,64.0,30.09,North,349,3.0,11.0,72,0.00,,,0.00,,2013-01-29 17:03:00,
2013-01-29 11:12:00,74.0,64.0,30.09,North,349,3.0,11.0,72,0.00,,,0.00,,2013-01-29 17:12:00,
2013-01-29 11:22:00,74.0,65.0,30.08,SSW,205,5.0,13.0,74,0.00,,,0.00,,2013-01-29 17:22:00,
2013-01-29 11:33:00,73.0,65.0,30.08,SSW,210,8.0,15.0,76,0.00,,,0.00,,2013-01-29 17:33:00,
2013-01-29 11:42:00,73.0,65.0,30.08,SSW,210,8.0,15.0,76,0.00,,,0.00,,2013-01-29 17:42:00,
2013-01-29 11:53:00,73.0,65.0,30.07,WSW,248,5.0,17.0,76,0.00,,,0.00,,2013-01-29 17:53:00,
2013-01-29 12:04:00,74.0,66.0,30.06,SE,135,4.0,15.0,76,0.00,,,0.00,,2013-01-29 18:04:00,
2013-01-29 12:12:00,74.0,66.0,30.06,SE,135,4.0,15.0,76,0.00,,,0.00,,2013-01-29 18:12:00,
2013-01-29 12:22:00,74.0,65.0,30.05,SSW,212,7.0,15.0,74,0.00,,,0.00,,2013-01-29 18:22:00,
2013-01-29 12:33:00,73.0,66.0,30.05,East,98,7.0,19.0,79,0.00,,,0.00,,2013-01-29 18:33:00,
2013-01-29 12:42:00,73.0,66.0,30.05,East,98,7.0,19.0,79,0.00,,,0.00,,2013-01-29 18:42:00,
2013-01-29 12:52:00,73.0,66.0,30.05,East,98,7.0,19.0,79,0.00,,,0.00,,2013-01-29 18:52:00,
2013-01-29 13:03:00,73.0,66.0,30.05,East,98,7.0,19.0,79,0.00,,,0.00,,2013-01-29 19:03:00,
2013-01-29 13:12:00,73.0,66.0,30.05,East,98,7.0,19.0,79,0.00,,,0.00,,2013-01-29 19:12:00,
2013-01-29 13:23:00,69.0,67.0,30.03,SSE,159,0.0,6.0,93,0.01,,,0.01,,2013-01-29 19:23:00,
2013-01-29 13:33:00,69.0,67.0,30.02,SE,137,1.0,7.0,92,0.01,,,0.01,,2013-01-29 19:33:00,
2013-01-29 13:42:00,69.0,67.0,30.02,SE,137,1.0,7.0,92,0.01,,,0.01,,2013-01-29 19:42:00,
2013-01-29 13:52:00,70.0,67.0,30.01,ESE,110,2.0,6.0,89,0.01,,,0.01,,2013-01-29 19:52:00,
2013-01-29 14:02:00,71.0,66.0,30.00,SE,139,2.0,10.0,84,0.00,,,0.01,,2013-01-29 20:02:00,
2013-01-29 14:13:00,71.0,66.0,30.00,SE,139,2.0,10.0,84,0.00,,,0.01,,2013-01-29 20:13:00,
2013-01-29 14:22:00,71.0,66.0,30.00,SE,139,2.0,10.0,84,0.00,,,0.01,,2013-01-29 20:22:00,
2013-01-29 14:33:00,73.0,66.0,29.98,SE,143,3.0,8.0,79,0.00,,,0.01,,2013-01-29 20:33:00,
2013-01-29 14:42:00,73.0,66.0,29.98,SE,143,3.0,8.0,79,0.00,,,0.01,,2013-01-29 20:42:00,
2013-01-29 14:53:00,73.0,66.0,29.98,SE,143,3.0,8.0,79,0.00,,,0.01,,2013-01-29 20:53:00,
2013-01-29 15:03:00,73.0,65.0,29.98,SW,231,5.0,9.0,76,0.00,,,0.01,,2013-01-29 21:03:00,
2013-01-29 15:12:00,73.0,65.0,29.98,SW,231,5.0,9.0,76,0.00,,,0.01,,2013-01-29 21:12:00,
2013-01-29 15:22:00,75.0,65.0,29.97,ESE,120,3.0,9.0,72,0.00,,,0.01,,2013-01-29 21:22:00,
2013-01-29 15:34:00,76.0,64.0,29.97,SW,215,6.0,12.0,67,0.00,,,0.01,,2013-01-29 21:34:00,
2013-01-29 15:42:00,76.0,64.0,29.97,SW,215,6.0,12.0,67,0.00,,,0.01,,2013-01-29 21:42:00,
2013-01-29 15:52:00,75.0,64.0,29.96,SW,219,3.0,11.0,68,0.00,,,0.01,,2013-01-29 21:52:00,
2013-01-29 16:03:00,75.0,63.0,29.97,SSW,212,3.0,10.0,67,0.00,,,0.01,,2013-01-29 22:03:00,
2013-01-29 16:12:00,75.0,63.0,29.97,SSW,212,3.0,10.0,67,0.00,,,0.01,,2013-01-29 22:12:00,
2013-01-29 16:22:00,75.0,64.0,29.96,SSW,208,1.0,9.0,69,0.00,,,0.01,,2013-01-29 22:22:00,
2013-01-29 16:33:00,74.0,64.0,29.96,SSW,213,3.0,7.0,70,0.00,,,0.01,,2013-01-29 22:33:00,
2013-01-29 16:42:00,74.0,64.0,29.96,SSW,213,3.0,7.0,70,0.00,,,0.01,,2013-01-29 22:42:00,
2013-01-29 16:53:00,74.0,64.0,29.96,SE,127,3.0,11.0,72,0.00,,,0.01,,2013-01-29 22:53:00,
2013-01-29 17:02:00,73.0,64.0,29.97,SSE,152,2.0,9.0,73,0.00,,,0.01,,2013-01-29 23:02:00,
2013-01-29 17:12:00,73.0,64.0,29.97,SSE,152,2.0,9.0,73,0.00,,,0.01,,2013-01-29 23:12:00,
2013-01-29 17:23:00,73.0,65.0,29.97,South,172,4.0,7.0,75,0.00,,,0.01,,2013-01-29 23:23:00,
2013-01-29 17:33:00,72.0,64.0,29.97,SSE,167,2.0,6.0,77,0.00,,,0.01,,2013-01-29 23:33:00,
2013-01-29 17:42:00,72.0,64.0,29.97,SSE,167,2.0,6.0,77,0.00,,,0.01,,2013-01-29 23:42:00,
2013-01-29 17:52:00,72.0,65.0,29.97,SSW,195,1.0,7.0,79,0.00,,,0.01,,2013-01-29 23:52:00,
2013-01-29 18:03:00,71.0,65.0,29.97,South,172,0.0,5.0,80,0.00,,,0.01,,2013-01-30 00:03:00,
2013-01-29 18:12:00,71.0,65.0,29.97,South,172,0.0,5.0,80,0.00,,,0.01,,2013-01-30 00:12:00,
2013-01-29 18:22:00,71.0,65.0,29.97,SW,225,0.0,5.0,82,0.00,,,0.01,,2013-01-30 00:22:00,
2013-01-29 18:32:00,71.0,66.0,29.96,SE,129,2.0,6.0,83,0.00,,,0.01,,2013-01-30 00:32:00,
2013-01-29 18:43:00,71.0,66.0,29.96,SE,129,2.0,6.0,83,0.00,,,0.01,,2013-01-30 00:43:00,
2013-01-29 18:52:00,70.0,65.0,29.97,SSW,201,0.0,4.0,85,0.00,,,0.01,,2013-01-30 00:52:00,
2013-01-29 19:02:00,69.0,65.0,29.96,SSE,162,1.0,5.0,86,0.00,,,0.01,,2013-01-30 01:02:00,
2013-01-29 19:12:00,69.0,65.0,29.96,SSE,162,1.0,5.0,86,0.00,,,0.01,,2013-01-30 01:12:00,
2013-01-29 19:22:00,69.0,65.0,29.96,SSE,162,1.0,5.0,86,0.00,,,0.01,,2013-01-30 01:22:00,
2013-01-29 19:32:00,70.0,66.0,29.96,SW,219,2.0,8.0,87,0.00,,,0.01,,2013-01-30 01:32:00,
2013-01-29 19:43:00,70.0,66.0,29.96,SW,219,2.0,8.0,87,0.00,,,0.01,,2013-01-30 01:43:00,
2013-01-29 19:52:00,69.0,65.0,29.96,SE,141,2.0,7.0,88,0.00,,,0.01,,2013-01-30 01:52:00,
2013-01-29 20:02:00,69.0,66.0,29.96,South,184,1.0,7.0,89,0.00,,,0.01,,2013-01-30 02:02:00,
2013-01-29 20:12:00,69.0,66.0,29.96,South,184,1.0,7.0,89,0.00,,,0.01,,2013-01-30 02:12:00,
2013-01-29 20:22:00,69.0,66.0,29.96,SW,217,1.0,6.0,89,0.00,,,0.01,,2013-01-30 02:22:00,
2013-01-29 20:33:00,69.0,66.0,29.96,South,185,1.0,5.0,90,0.00,,,0.01,,2013-01-30 02:33:00,
2013-01-29 20:42:00,69.0,66.0,29.96,South,185,1.0,5.0,90,0.00,,,0.01,,2013-01-30 02:42:00,
2013-01-29 20:52:00,68.0,65.0,29.95,SE,131,2.0,8.0,90,0.00,,,0.01,,2013-01-30 02:52:00,
2013-01-29 21:03:00,68.0,65.0,29.95,SSE,167,2.0,5.0,90,0.00,,,0.01,,2013-01-30 03:03:00,
2013-01-29 21:12:00,68.0,65.0,29.95,SSE,167,2.0,5.0,90,0.00,,,0.01,,2013-01-30 03:12:00,
2013-01-29 21:22:00,68.0,65.0,29.95,SE,135,2.0,6.0,91,0.00,,,0.01,,2013-01-30 03:22:00,
2013-01-29 21:32:00,68.0,65.0,29.94,SW,225,6.0,10.0,91,0.00,,,0.01,,2013-01-30 03:32:00,
2013-01-29 21:42:00,68.0,65.0,29.94,SW,225,6.0,10.0,91,0.00,,,0.01,,2013-01-30 03:42:00,
2013-01-29 21:52:00,68.0,65.0,29.94,SSE,155,2.0,6.0,91,0.00,,,0.01,,2013-01-30 03:52:00,
2013-01-29 22:02:00,68.0,65.0,29.94,South,173,2.0,9.0,91,0.00,,,0.01,,2013-01-30 04:02:00,
2013-01-29 22:12:00,68.0,65.0,29.94,South,173,2.0,9.0,91,0.00,,,0.01,,2013-01-30 04:12:00,
2013-01-29 22:22:00,68.0,65.0,29.94,WSW,240,2.0,8.0,91,0.00,,,0.01,,2013-01-30 04:22:00,
2013-01-29 22:32:00,68.0,65.0,29.94,South,183,3.0,9.0,91,0.00,,,0.01,,2013-01-30 04:32:00,
2013-01-29 22:42:00,68.0,65.0,29.94,South,183,3.0,9.0,91,0.00,,,0.01,,2013-01-30 04:42:00,
2013-01-29 22:52:00,68.0,65.0,29.93,ESE,122,2.0,8.0,91,0.00,,,0.01,,2013-01-30 04:52:00,
2013-01-29 23:04:00,68.0,65.0,29.93,ESE,122,2.0,8.0,91,0.00,,,0.01,,2013-01-30 05:04:00,
2013-01-29 23:12:00,68.0,65.0,29.93,ESE,122,2.0,8.0,91,0.00,,,0.01,,2013-01-30 05:12:00,
2013-01-29 23:22:00,68.0,66.0,29.93,SSW,200,3.0,6.0,92,0.00,,,0.01,,2013-01-30 05:22:00,
2013-01-29 23:32:00,68.0,66.0,29.92,ESE,122,2.0,7.0,92,0.00,,,0.01,,2013-01-30 05:32:00,
2013-01-29 23:43:00,68.0,66.0,29.92,ESE,122,2.0,7.0,92,0.00,,,0.01,,2013-01-30 05:43:00,
2013-01-29 23:52:00,68.0,66.0,29.92,WNW,300,4.0,9.0,93,0.00,,,0.01,,2013-01-30 05:52:00,